Location: Niverville
(49.6028°N, 97.0419°W)
Time: 23:58:03
(UTC-05:00)

Amateur Radio Satellites - All Passes

Search period start: 28 September 2016 23:28
Search period end: 29 September 2016 23:28
Location: Niverville, 49.6028°N, 97.0419°W

Satellite Date Start Highest point End Downlink Frequencies (MHz)
Time Altitude Azimuth
UNISAT 6 28 Sep 23:43:11 23:47:32 60° 101° (E) 23:51:59 437.425
AUBIESAT-1 28 Sep 23:43:38 23:47:06 31° 62° (ENE) 23:50:22 437.475
AO-85 28 Sep 23:48:47 23:53:09 29° 325° (NW) 23:57:14 145.980
DX 1 28 Sep 23:53:35 23:57:27 31° 65° (ENE) 00:01:18 434.975-435.025
50 SAT 29 Sep 00:00:22 00:03:52 45° 71° (ENE) 00:07:24 437.505
QB50P2 29 Sep 00:03:00 00:05:40 16° 90° (E) 00:08:17 145.880/145.840
VELOX 1 29 Sep 00:04:46 00:09:08 58° 71° (ENE) 00:13:30 145.980
POLYITAN 1 29 Sep 00:05:12 00:07:51 16° 90° (E) 00:10:30 437.675
CUBEBUG 1 29 Sep 00:06:07 00:10:32 74° 72° (ENE) 00:14:56 437.445
ESTCUBE 1 29 Sep 00:09:58 00:14:30 70° 257° (WSW) 00:19:04 437.505/2401.250
ANTELSAT 29 Sep 00:18:36 00:22:57 64° 288° (WNW) 00:27:23 437.575/2403.000
M-CUBED/EXP-1 PRIME 29 Sep 00:21:23 00:25:25 87° 250° (WSW) 00:29:11 437.505
TISAT 1 29 Sep 00:25:03 00:27:13 14° 57° (ENE) 00:29:22 437.305
ISS 29 Sep 00:29:10 00:32:25 59° 4° (N) 00:35:40 145.825
Cosmos 2491 29 Sep 00:33:00 00:39:15 20° 52° (NE) 00:45:28 435.465 / 435.565
JAS-2 29 Sep 00:37:03 00:44:18 38° 92° (E) 00:51:15 435.910
TIGRISAT 29 Sep 00:38:59 00:43:08 43° 291° (WNW) 00:47:22 435.000
BUGSAT 1 29 Sep 00:40:00 00:41:52 13° 89° (E) 00:43:45 437.445
DUCHIFAT 1 29 Sep 00:40:48 00:44:32 30° 96° (E) 00:48:15 145.980
SPROUT 29 Sep 00:41:53 00:46:08 75° 75° (ENE) 00:50:25 437.525
QB50P1 29 Sep 00:44:03 00:47:59 37° 97° (E) 00:51:54 145.935-145.965
SO-50 29 Sep 00:54:35 00:58:51 38° 240° (WSW) 01:03:00 436.795
POPSAT HIP 1 29 Sep 00:57:34 01:01:42 50° 100° (E) 01:05:47 437.405
AISAT 29 Sep 00:57:50 01:02:05 43° 261° (W) 01:06:20 437.250
UKube-1 29 Sep 00:58:12 01:02:32 82° 256° (WSW) 01:06:54 .
NANOSAT C BR1 29 Sep 01:13:04 01:17:16 69° 102° (ESE) 01:21:28 145.865
RS-15 29 Sep 01:14:17 01:25:30 40° 357° (N) 01:36:55 29.354- 29.394
ITUPSAT 1 29 Sep 01:16:07 01:18:10 13° 53° (NE) 01:20:13 437.325
AUBIESAT-1 29 Sep 01:18:12 01:21:35 27° 258° (WSW) 01:24:47 437.475
UNISAT 6 29 Sep 01:20:48 01:23:53 19° 299° (WNW) 01:27:01 437.425
SWISSCUBE 29 Sep 01:27:21 01:30:24 17° 56° (ENE) 01:33:28 437.505
BEESAT 3 29 Sep 01:29:14 01:32:47 34° 120° (ESE) 01:36:23 437.485
DX 1 29 Sep 01:29:38 01:33:35 33° 263° (W) 01:37:34 434.975-435.025
AO-85 29 Sep 01:32:47 01:35:01 13° 348° (NNW) 01:37:12 145.980
50 SAT 29 Sep 01:35:16 01:37:37 16° 269° (W) 01:39:58 437.505
QB50P2 29 Sep 01:37:41 01:41:52 60° 288° (WNW) 01:46:01 145.880/145.840
BEESAT 29 Sep 01:39:47 01:43:10 20° 58° (ENE) 01:46:34 436.000
POLYITAN 1 29 Sep 01:39:53 01:44:02 60° 288° (WNW) 01:48:12 437.675
Oscar 19 29 Sep 01:41:19 01:44:11 15° 87° (E) 01:47:04 437.125/150
YUBILEINY 29 Sep 01:42:44 01:46:45 14° 69° (ENE) 01:50:46 435.215
VELOX 1 29 Sep 01:42:52 01:45:57 18° 269° (W) 01:49:04 145.980
CUBEBUG 1 29 Sep 01:44:57 01:47:20 14° 272° (W) 01:49:42 437.445
TISAT 1 29 Sep 01:58:06 02:02:17 81° 254° (WSW) 02:06:30 437.305
ISS 29 Sep 02:05:43 02:08:59 64° 203° (SSW) 02:12:14 145.825
BUGSAT 1 29 Sep 02:13:43 02:17:43 69° 287° (WNW) 02:21:43 437.445
DUCHIFAT 1 29 Sep 02:16:31 02:20:12 31° 294° (WNW) 02:23:54 145.980
QB50P1 29 Sep 02:20:07 02:23:37 26° 296° (WNW) 02:27:07 145.935-145.965
SPROUT 29 Sep 02:20:34 02:22:36 13° 272° (W) 02:24:40 437.525
JAS-2 29 Sep 02:21:54 02:29:37 60° 293° (WNW) 02:37:04 435.910
BEESAT 2 29 Sep 02:26:45 02:30:41 65° 125° (SE) 02:34:39 435.950
Cosmos 2491 29 Sep 02:29:04 02:37:57 73° 77° (ENE) 02:46:46 435.465 / 435.565
POPSAT HIP 1 29 Sep 02:34:03 02:37:11 20° 298° (WNW) 02:40:18 437.405
Gurwin Techsat 1B 29 Sep 02:47:24 02:51:58 28° 93° (E) 02:56:30 435.225
NANOSAT C BR1 29 Sep 02:49:59 02:52:31 16° 301° (WNW) 02:55:03 145.865
ITUPSAT 1 29 Sep 02:50:25 02:55:10 73° 72° (ENE) 02:59:58 437.325
MOZHAYETS 4 29 Sep 02:55:45 02:58:53 19° 59° (ENE) 03:02:02
SWISSCUBE 29 Sep 03:02:51 03:07:37 80° 256° (WSW) 03:12:26 437.505
BEESAT 3 29 Sep 03:06:50 03:10:27 34° 320° (NW) 03:14:07 437.485
KKS-1 29 Sep 03:12:24 03:15:24 18° 59° (ENE) 03:18:23 437.445
AO-85 29 Sep 03:15:08 03:17:22 13° 13° (NNE) 03:19:32 145.980
BEESAT 29 Sep 03:15:45 03:20:29 67° 257° (WSW) 03:25:16 436.000
Oscar 19 29 Sep 03:19:02 03:24:15 87° 283° (WNW) 03:29:23 437.125/150
AIST 2 29 Sep 03:24:29 03:26:14 12° 110° (ESE) 03:27:57 435.215
RS-15 29 Sep 03:29:22 03:41:24 53° 30° (NNE) 03:53:21 29.354- 29.394
YUBILEINY 29 Sep 03:33:04 03:41:39 62° 92° (E) 03:50:13 435.215
Cosmos 2504 29 Sep 03:41:46 03:47:35 27° 82° (E) 03:53:19 435.465 / 435.565
STARS 29 Sep 03:42:41 03:45:36 18° 59° (ENE) 03:48:33 437.465
ISS 29 Sep 03:43:05 03:44:58 14° 222° (SW) 03:46:52 145.825
AO-7 29 Sep 03:56:26 04:02:47 23° 90° (E) 04:09:05 29.400- 29.500
CUSAT 1 29 Sep 04:02:54 04:06:03 13° 41° (NE) 04:09:05 437.405
BEESAT 2 29 Sep 04:05:37 04:08:51 23° 326° (NNW) 04:12:08 435.950
JAS-2 29 Sep 04:08:13 04:13:08 18° 314° (NW) 04:18:01 435.910
ITAMSAT 1 29 Sep 04:14:52 04:19:55 46° 99° (E) 04:24:55 435.822/435.867
PCSat 29 Sep 04:16:00 04:20:02 22° 108° (ESE) 04:24:06 145.827
CUBESAT XI-V 29 Sep 04:18:44 04:21:59 19° 59° (ENE) 04:25:16 437.345
Cosmos 2491 29 Sep 04:26:44 04:34:02 30° 280° (W) 04:41:19 435.465 / 435.565
Gurwin Techsat 1B 29 Sep 04:27:02 04:32:10 49° 292° (WNW) 04:37:15 435.225
ITUPSAT 1 29 Sep 04:30:34 04:33:33 16° 271° (W) 04:36:33 437.325
MOZHAYETS 4 29 Sep 04:31:01 04:35:35 67° 258° (WSW) 04:40:11
AIST 1 29 Sep 04:39:04 04:40:23 11° 81° (E) 04:41:42
SWISSCUBE 29 Sep 04:44:52 04:46:13 11° 275° (W) 04:47:34 437.505
KKS-1 29 Sep 04:47:05 04:51:31 66° 258° (WSW) 04:55:58 437.445
BEESAT 3 29 Sep 04:47:42 04:49:14 12° 342° (NNW) 04:50:46 437.485
AO-85 29 Sep 04:55:10 04:59:09 33° 37° (NE) 05:02:51 145.980
Oscar 19 29 Sep 04:59:43 05:02:51 16° 306° (NW) 05:05:57 437.125/150
AIST 2 29 Sep 04:59:55 05:04:02 89° 139° (SE) 05:08:13 435.215
STARS 29 Sep 05:17:10 05:21:32 65° 258° (WSW) 05:25:54 437.465
YUBILEINY 29 Sep 05:31:00 05:38:59 37° 295° (WNW) 05:46:58 435.215
Cosmos 2504 29 Sep 05:33:06 05:40:22 67° 283° (WNW) 05:47:32 435.465 / 435.565
RS-15 29 Sep 05:42:32 05:54:51 74° 238° (WSW) 06:06:56 29.354- 29.394
CUSAT 1 29 Sep 05:43:06 05:50:33 42° 65° (ENE) 05:56:59 437.405
DANDE 29 Sep 05:43:30 05:50:17 27° 56° (ENE) 05:56:56 436.750
BEESAT 2 29 Sep 05:47:47 05:48:05 10° 350° (N) 05:48:22 435.950
AO-7 29 Sep 05:48:17 05:56:39 89° 289° (WNW) 06:04:58 29.400- 29.500
CUBESAT XI-V 29 Sep 05:54:11 05:58:53 69° 258° (WSW) 06:03:37 437.345
HORYU 2 29 Sep 05:54:20 05:57:52 23° 93° (E) 06:01:25 437.375
ITAMSAT 1 29 Sep 05:54:40 05:59:13 31° 298° (WNW) 06:03:45 435.822/435.867
STRAND 1 29 Sep 05:54:42 05:56:49 13° 51° (NE) 05:58:57 437.568
PCSat 29 Sep 05:57:29 06:02:54 73° 308° (NW) 06:08:22 145.827
Gurwin Techsat 1B 29 Sep 06:10:37 06:10:55 10° 313° (NW) 06:11:14 435.225
AIST 1 29 Sep 06:12:53 06:17:16 87° 274° (W) 06:21:41
CUTE-I 29 Sep 06:25:35 06:28:02 13° 86° (E) 06:30:29 437.470
Cubesat XI-IV 29 Sep 06:25:54 06:28:19 13° 85° (E) 06:30:44 437.490
BRITE-PL 29 Sep 06:32:13 06:36:38 33° 94° (E) 06:40:44 437.365/2234.400
AO-85 29 Sep 06:35:42 06:39:39 39° 240° (WSW) 06:43:20 145.980
AIST 2 29 Sep 06:39:56 06:43:05 20° 330° (NNW) 06:46:15 435.215
O/OREOS (USA 219) 29 Sep 06:42:07 06:43:44 12° 97° (E) 06:45:20 437.305
NOAA 18 29 Sep 07:16:50 07:21:30 28° 94° (E) 07:26:08 137.9125
CUSAT 1 29 Sep 07:25:16 07:32:47 51° 269° (W) 07:39:11 437.405
DANDE 29 Sep 07:25:49 07:34:16 86° 78° (ENE) 07:42:16 436.750
BEESAT 2 29 Sep 07:26:38 07:27:43 11° 14° (NNE) 07:28:48 435.950
STRAND 1 29 Sep 07:30:01 07:35:03 65° 71° (ENE) 07:40:09 437.568
HORYU 2 29 Sep 07:30:23 07:34:39 46° 292° (WNW) 07:38:55 437.375
Cosmos 2504 29 Sep 07:31:20 07:35:22 15° 308° (NW) 07:39:23 435.465 / 435.565
LilacSat-2 29 Sep 07:35:52 07:39:38 51° 100° (E) 07:43:24 437.200
AO-7 29 Sep 07:41:50 07:48:31 28° 313° (NW) 07:55:11 29.400- 29.500
NOAA 15 29 Sep 07:42:36 07:47:55 65° 103° (ESE) 07:53:09 137.62
PCSat 29 Sep 07:43:06 07:47:15 22° 331° (NNW) 07:51:24 145.827
GOMX 1 29 Sep 07:52:22 07:56:52 83° 101° (E) 08:01:07 467.674
AIST 1 29 Sep 07:54:00 07:55:36 12° 300° (WNW) 07:57:13
RS-15 29 Sep 07:56:34 08:05:11 23° 262° (W) 08:13:44 29.354- 29.394
GONETS M04 29 Sep 07:58:07 08:04:50 25° 77° (ENE) 08:11:32
CUTE-I 29 Sep 08:03:33 08:08:57 81° 105° (ESE) 08:14:19 437.470
Cubesat XI-IV 29 Sep 08:03:52 08:09:16 80° 105° (ESE) 08:14:38 437.490
BEESAT 3 29 Sep 08:04:56 08:07:52 19° 30° (NNE) 08:10:46 437.485
DOVE 4 29 Sep 08:06:30 08:10:38 50° 99° (E) 08:14:40 437.250
BRITE-PL 29 Sep 08:10:43 08:15:08 34° 295° (WNW) 08:19:14 437.365/2234.400
PRISM 29 Sep 08:17:41 08:20:51 21° 62° (ENE) 08:24:02 437.425
O/OREOS (USA 219) 29 Sep 08:17:47 08:22:21 86° 115° (ESE) 08:27:00 437.305
AIST 2 29 Sep 08:22:30 08:23:08 10° 354° (N) 08:23:46 435.215
Cosmos 2499 29 Sep 08:40:24 08:46:27 32° 84° (E) 08:52:32 435.465 / 435.565
NOAA 18 29 Sep 08:57:08 09:02:26 52° 293° (WNW) 09:07:44 137.9125
SEEDS 29 Sep 08:58:00 09:01:38 26° 94° (E) 09:05:14 437.485
CUTE 1.7 + AOD 2 29 Sep 08:59:05 09:03:06 37° 96° (E) 09:07:05 437.475
CANX-2 29 Sep 09:00:34 09:04:43 43° 98° (E) 09:08:49 2200.000
BEESAT 2 29 Sep 09:03:18 09:06:49 28° 37° (NE) 09:10:19 435.950
CINEMA 3 29 Sep 09:07:34 09:11:42 59° 101° (E) 09:15:54 145.822/145.860
HO-68 29 Sep 09:07:47 09:14:42 49° 99° (E) 09:21:35 435.675
DANDE 29 Sep 09:09:35 09:16:10 27° 279° (W) 09:22:30 436.750
CUSAT 1 29 Sep 09:10:59 09:12:46 11° 291° (WNW) 09:14:30 437.405
STRAND 1 29 Sep 09:11:01 09:14:43 20° 270° (W) 09:18:27 437.568
LilacSat-2 29 Sep 09:11:04 09:13:35 17° 298° (WNW) 09:16:07 437.200
UNISAT 6 29 Sep 09:12:35 09:14:23 12° 56° (NE) 09:16:10 437.425
AAUSAT CUBESAT 2 29 Sep 09:16:25 09:19:47 23° 92° (E) 09:23:08 437.432
NOAA 15 29 Sep 09:23:08 09:27:15 23° 302° (WNW) 09:31:21 137.62
PCSat 29 Sep 09:30:34 09:32:47 12° 356° (N) 09:35:01 145.827
GOMX 1 29 Sep 09:31:59 09:34:18 14° 304° (NW) 09:36:33 467.674
AO-7 29 Sep 09:37:10 09:38:33 10° 339° (NNW) 09:39:56 29.400- 29.500
BEESAT 3 29 Sep 09:42:04 09:46:04 89° 43° (NE) 09:50:03 437.485
CUTE-I 29 Sep 09:44:38 09:48:24 20° 304° (NW) 09:52:09 437.470
Cubesat XI-IV 29 Sep 09:44:58 09:48:45 20° 304° (NW) 09:52:31 437.490
DOVE 4 29 Sep 09:45:00 09:48:02 19° 299° (WNW) 09:51:00 437.250
ANTELSAT 29 Sep 09:45:58 09:49:23 24° 63° (ENE) 09:52:48 437.575/2403.000
GONETS M04 29 Sep 09:51:42 10:00:34 85° 279° (W) 10:09:31
PRISM 29 Sep 09:51:50 09:55:53 47° 260° (W) 09:59:57 437.425
O/OREOS (USA 219) 29 Sep 09:59:19 10:02:26 18° 317° (NW) 10:05:34 437.305
AIST 2 29 Sep 10:01:23 10:03:26 13° 18° (NNE) 10:05:28 435.215
COMPASS 1 29 Sep 10:01:43 10:05:58 80° 104° (ESE) 10:10:11 437.405
FUNcube-1 29 Sep 10:02:49 10:06:34 28° 95° (E) 10:10:22 145.935
CUBEBUG 2 29 Sep 10:04:46 10:09:02 67° 102° (ESE) 10:13:24 437.445
TIGRISAT 29 Sep 10:05:33 10:09:22 33° 67° (ENE) 10:13:12 435.000
UWE-3 29 Sep 10:19:36 10:23:53 65° 101° (E) 10:28:16 435.000/436.395/437.385
DELFI C3 29 Sep 10:23:35 10:26:31 19° 91° (E) 10:29:26 145.870
Cosmos 2499 29 Sep 10:32:16 10:39:13 55° 286° (WNW) 10:46:12 435.465 / 435.565
SEEDS 29 Sep 10:33:29 10:37:25 36° 292° (WNW) 10:41:20 437.485
CUTE 1.7 + AOD 2 29 Sep 10:35:11 10:38:49 27° 295° (WNW) 10:42:26 437.475
NANOSAT C BR1 29 Sep 10:36:23 10:38:09 12° 56° (ENE) 10:39:54 145.865
CANX-2 29 Sep 10:36:53 10:40:20 24° 297° (WNW) 10:43:46 2200.000
NOAA 18 29 Sep 10:40:23 10:41:56 11° 313° (NW) 10:43:30 137.9125
Oscar 11 29 Sep 10:40:31 10:44:53 66° 102° (ESE) 10:49:13 145.826/435.025
BEESAT 2 29 Sep 10:40:56 10:44:50 49° 237° (WSW) 10:48:43 435.950
ZACube-1 29 Sep 10:45:25 10:49:46 77° 104° (ESE) 10:54:11 437.345
CINEMA 3 29 Sep 10:45:45 10:48:29 17° 299° (WNW) 10:51:15 145.822/145.860
UNISAT 6 29 Sep 10:46:10 10:50:26 88° 83° (E) 10:54:44 437.425
AAUSAT CUBESAT 2 29 Sep 10:51:28 10:55:26 41° 291° (WNW) 10:59:22 437.432
HUMSAT D 29 Sep 10:52:37 10:55:54 21° 92° (E) 10:59:11 437.325/437.525
JAS-2 29 Sep 10:54:07 10:59:50 28° 54° (NE) 11:05:59 435.910
HO-68 29 Sep 10:55:45 11:02:23 43° 300° (WNW) 11:09:00 435.675
QB50P2 29 Sep 10:59:36 11:02:50 22° 63° (ENE) 11:06:05 145.880/145.840
POLYITAN 1 29 Sep 11:01:48 11:05:02 22° 62° (ENE) 11:08:16 437.675
PCSat 29 Sep 11:14:57 11:18:31 17° 23° (NNE) 11:22:05 145.827
BEESAT 3 29 Sep 11:21:28 11:23:07 12° 249° (WSW) 11:24:44 437.485
ANTELSAT 29 Sep 11:21:52 11:25:54 42° 262° (W) 11:29:59 437.575/2403.000
BUGSAT 1 29 Sep 11:33:35 11:36:20 18° 61° (ENE) 11:39:04 437.445
DUCHIFAT 1 29 Sep 11:36:34 11:40:28 39° 68° (ENE) 11:44:22 145.980
COMPASS 1 29 Sep 11:38:43 11:40:57 14° 302° (WNW) 11:43:10 437.405
FUNcube-1 29 Sep 11:38:56 11:42:53 36° 292° (WNW) 11:46:53 145.935
AIST 2 29 Sep 11:39:06 11:43:02 38° 41° (NE) 11:46:58 435.215
QB50P1 29 Sep 11:40:21 11:44:24 48° 70° (ENE) 11:48:28 145.935-145.965
TIGRISAT 29 Sep 11:42:25 11:46:07 28° 265° (W) 11:49:49 435.000
CUBEBUG 2 29 Sep 11:42:33 11:45:14 17° 300° (WNW) 11:47:58 437.445
YUBILEINY 29 Sep 11:44:10 11:45:42 10° 37° (NE) 11:47:13 435.215
GONETS M04 29 Sep 11:52:00 11:58:52 24° 304° (NW) 12:05:47
POPSAT HIP 1 29 Sep 11:53:55 11:58:05 65° 73° (ENE) 12:02:15 437.405
UWE-3 29 Sep 11:57:07 11:59:56 17° 300° (WNW) 12:02:48 435.000/436.395/437.385
DELFI C3 29 Sep 11:57:43 12:01:35 45° 290° (WNW) 12:05:25 145.870
ESTCUBE 1 29 Sep 11:58:53 12:02:05 19° 90° (E) 12:05:16 437.505/2401.250
NANOSAT C BR1 29 Sep 12:09:03 12:13:14 89° 76° (ENE) 12:17:27 145.865
Oscar 11 29 Sep 12:17:42 12:20:33 17° 300° (WNW) 12:23:24 145.826/435.025
ZACube-1 29 Sep 12:23:03 12:25:32 15° 301° (WNW) 12:28:02 437.345
UNISAT 6 29 Sep 12:26:39 12:27:49 11° 274° (W) 12:28:59 437.425
HUMSAT D 29 Sep 12:27:39 12:31:44 45° 290° (WNW) 12:35:49 437.325/437.525
Cosmos 2499 29 Sep 12:31:29 12:34:18 12° 312° (NW) 12:37:07 435.465 / 435.565
QB50P2 29 Sep 12:34:21 12:38:24 45° 261° (W) 12:42:28 145.880/145.840
Gurwin Techsat 1B 29 Sep 12:36:25 12:38:51 13° 51° (NE) 12:41:18 435.225
POLYITAN 1 29 Sep 12:36:33 12:40:35 45° 261° (W) 12:44:39 437.675
JAS-2 29 Sep 12:37:21 12:44:04 79° 256° (WSW) 12:51:39 435.910
UKube-1 29 Sep 12:42:46 12:44:31 12° 88° (E) 12:46:15 .
AISAT 29 Sep 12:43:41 12:47:22 26° 94° (E) 12:51:01 437.250
PHONESAT 2.4 29 Sep 12:43:49 12:45:27 14° 175° (S) 12:47:06 2401.200-2431.200
HO-68 29 Sep 12:45:42 12:48:19 12° 323° (NW) 12:50:57 435.675
50 SAT 29 Sep 12:57:12 13:00:29 29° 96° (E) 13:03:42 437.505
PCSat 29 Sep 12:57:56 13:03:14 49° 46° (NE) 13:08:29 145.827
Oscar 19 29 Sep 13:01:38 13:06:18 34° 64° (ENE) 13:10:58 437.125/150
BUGSAT 1 29 Sep 13:07:20 13:11:21 56° 259° (W) 13:15:21 437.445
AO-7 29 Sep 13:12:01 13:16:44 17° 34° (NE) 13:21:28 29.400- 29.500
DUCHIFAT 1 29 Sep 13:12:56 13:16:18 23° 267° (W) 13:19:41 145.980
DX 1 29 Sep 13:13:06 13:16:57 30° 96° (E) 13:20:47 434.975-435.025
QB50P1 29 Sep 13:17:24 13:20:27 19° 268° (W) 13:23:31 145.935-145.965
AIST 2 29 Sep 13:17:40 13:21:31 35° 240° (WSW) 13:25:20 435.215
CUBEBUG 1 29 Sep 13:26:29 13:30:51 81° 104° (ESE) 13:35:11 437.445
VELOX 1 29 Sep 13:26:42 13:31:07 63° 102° (ESE) 13:35:28 145.980
Cosmos 2504 29 Sep 13:27:34 13:31:10 14° 50° (NE) 13:34:49 435.465 / 435.565
M-CUBED/EXP-1 PRIME 29 Sep 13:30:56 13:33:46 26° 102° (ESE) 13:36:34 437.505
POPSAT HIP 1 29 Sep 13:31:57 13:34:19 15° 271° (W) 13:36:41 437.405
ESTCUBE 1 29 Sep 13:34:48 13:39:17 58° 289° (WNW) 13:43:44 437.505/2401.250
YUBILEINY 29 Sep 13:37:44 13:45:47 39° 66° (ENE) 13:53:47 435.215
TISAT 1 29 Sep 13:39:38 13:41:02 11° 87° (E) 13:42:27 437.305
Cosmos 2491 29 Sep 13:43:32 13:48:38 17° 71° (ENE) 13:53:45 435.465 / 435.565
NANOSAT C BR1 29 Sep 13:48:38 13:49:36 11° 274° (W) 13:50:34 145.865
SPROUT 29 Sep 13:59:09 14:03:26 80° 103° (ESE) 14:07:41 437.525
ITAMSAT 1 29 Sep 13:59:52 14:03:29 19° 56° (NE) 14:07:07 435.822/435.867
Gurwin Techsat 1B 29 Sep 14:12:36 14:17:51 66° 71° (ENE) 14:23:09 435.225
UKube-1 29 Sep 14:16:49 14:21:10 83° 284° (WNW) 14:25:28 .
PHONESAT 2.4 29 Sep 14:19:38 14:20:50 12° 192° (SSW) 14:22:02 2401.200-2431.200
AISAT 29 Sep 14:19:51 14:23:58 39° 292° (WNW) 14:28:03 437.250
AUBIESAT-1 29 Sep 14:26:03 14:29:23 80° 290° (WNW) 14:32:42 437.475
JAS-2 29 Sep 14:26:07 14:30:27 17° 279° (W) 14:35:06 435.910
50 SAT 29 Sep 14:30:50 14:33:53 25° 294° (WNW) 14:36:54 437.505
Oscar 19 29 Sep 14:40:41 14:45:33 40° 263° (W) 14:50:27 437.125/150
PCSat 29 Sep 14:41:38 14:46:29 34° 247° (WSW) 14:51:19 145.827
ITUPSAT 1 29 Sep 14:48:03 14:50:28 14° 87° (E) 14:52:52 437.325
DX 1 29 Sep 14:49:15 14:53:10 33° 294° (WNW) 14:57:03 434.975-435.025
SWISSCUBE 29 Sep 14:59:21 15:02:49 19° 91° (E) 15:06:16 437.505
AO-7 29 Sep 14:59:47 15:07:39 50° 58° (ENE) 15:15:32 29.400- 29.500
VELOX 1 29 Sep 15:04:07 15:07:08 18° 301° (WNW) 15:10:09 145.980
CUBEBUG 1 29 Sep 15:04:11 15:06:33 15° 303° (WNW) 15:08:55 437.445
M-CUBED/EXP-1 PRIME 29 Sep 15:05:36 15:08:16 23° 301° (WNW) 15:10:55 437.505
O/OREOS (USA 219) 29 Sep 15:06:53 15:08:17 11° 35° (NE) 15:09:41 437.305
BEESAT 29 Sep 15:11:55 15:15:42 23° 92° (E) 15:19:27 436.000
SO-50 29 Sep 15:12:46 15:16:41 25° 115° (ESE) 15:20:35 436.795
TISAT 1 29 Sep 15:13:05 15:17:17 83° 286° (WNW) 15:21:27 437.305
Cosmos 2504 29 Sep 15:19:04 15:26:21 58° 74° (ENE) 15:34:05 435.465 / 435.565
YUBILEINY 29 Sep 15:34:32 15:43:00 58° 269° (W) 15:51:26 435.215
Cosmos 2491 29 Sep 15:35:05 15:43:48 71° 94° (E) 15:52:36 435.465 / 435.565
SPROUT 29 Sep 15:36:31 15:38:48 14° 302° (WNW) 15:41:05 437.525
ITAMSAT 1 29 Sep 15:37:12 15:42:23 78° 256° (WSW) 15:47:37 435.822/435.867
Gurwin Techsat 1B 29 Sep 15:54:22 15:58:17 21° 270° (W) 16:02:15 435.225
UKube-1 29 Sep 15:54:44 15:56:30 12° 305° (NW) 15:58:17 .
BRITE-PL 29 Sep 16:11:13 16:13:50 14° 53° (NE) 16:16:25 437.365/2234.400
AIST 1 29 Sep 16:15:32 16:19:32 36° 73° (ENE) 16:23:28
MOZHAYETS 4 29 Sep 16:22:06 16:25:43 22° 91° (E) 16:29:18
ITUPSAT 1 29 Sep 16:24:07 16:28:58 87° 289° (WNW) 16:33:47 437.325
KKS-1 29 Sep 16:34:31 16:37:28 17° 90° (E) 16:40:23 437.445
SWISSCUBE 29 Sep 16:36:16 16:41:02 61° 289° (WNW) 16:45:45 437.505
O/OREOS (USA 219) 29 Sep 16:44:22 16:48:52 49° 57° (ENE) 16:53:20 437.305
BEESAT 29 Sep 16:49:07 16:53:47 52° 291° (WNW) 16:58:25 436.000
TISAT 1 29 Sep 16:50:47 16:52:15 12° 304° (NW) 16:53:41 437.305
SO-50 29 Sep 16:52:05 16:56:52 60° 315° (NW) 17:01:35 436.795
AO-7 29 Sep 16:52:31 17:00:29 49° 259° (W) 17:08:29 29.400- 29.500
HORYU 2 29 Sep 16:56:13 17:00:15 36° 66° (ENE) 17:04:18 437.375
STARS 29 Sep 17:03:05 17:05:54 17° 90° (E) 17:08:42 437.465
NOAA 18 29 Sep 17:09:46 17:12:58 16° 51° (NE) 17:16:09 137.9125
Cosmos 2504 29 Sep 17:12:59 17:19:24 33° 275° (W) 17:26:11 435.465 / 435.565
ITAMSAT 1 29 Sep 17:20:44 17:22:44 12° 275° (W) 17:24:44 435.822/435.867
GOMX 1 29 Sep 17:27:12 17:31:17 23° 62° (ENE) 17:35:12 467.674
NOAA 15 29 Sep 17:28:32 17:32:58 28° 60° (ENE) 17:37:25 137.62
Cosmos 2491 29 Sep 17:33:45 17:41:28 33° 298° (WNW) 17:49:16 435.465 / 435.565
YUBILEINY 29 Sep 17:34:24 17:37:47 13° 292° (WNW) 17:41:10 435.215
DOVE 4 29 Sep 17:40:48 17:43:16 14° 57° (ENE) 17:45:39 437.250
BRITE-PL 29 Sep 17:45:45 17:51:22 64° 72° (ENE) 17:56:48 437.365/2234.400
CUBESAT XI-V 29 Sep 17:46:53 17:50:36 22° 91° (E) 17:54:15 437.345
CUTE-I 29 Sep 17:50:44 17:55:27 33° 63° (ENE) 18:00:11 437.470
Cubesat XI-IV 29 Sep 17:51:13 17:55:55 33° 63° (ENE) 18:00:40 437.490
AIST 1 29 Sep 17:53:27 17:56:58 25° 272° (W) 18:00:26
HO-68 29 Sep 17:57:17 18:01:18 16° 42° (NE) 18:05:18 435.675
MOZHAYETS 4 29 Sep 17:58:39 18:03:10 52° 290° (WNW) 18:07:40
GONETS M04 29 Sep 18:00:57 18:06:26 17° 48° (NE) 18:11:51
ITUPSAT 1 29 Sep 18:03:26 18:06:07 15° 305° (NW) 18:08:48 437.325
KKS-1 29 Sep 18:10:03 18:14:25 61° 289° (WNW) 18:18:47 437.445
RS-15 29 Sep 18:10:15 18:12:24 11° 88° (E) 18:14:34 29.354- 29.394
SWISSCUBE 29 Sep 18:16:35 18:17:53 11° 309° (NW) 18:19:11 437.505
LilacSat-2 29 Sep 18:21:49 18:25:26 46° 71° (ENE) 18:29:05 437.200
O/OREOS (USA 219) 29 Sep 18:24:20 18:27:59 24° 257° (WSW) 18:31:38 437.305
Cosmos 2499 29 Sep 18:24:36 18:29:15 17° 54° (NE) 18:34:04 435.465 / 435.565
HORYU 2 29 Sep 18:33:02 18:36:52 29° 265° (W) 18:40:44 437.375
SO-50 29 Sep 18:34:49 18:38:16 19° 336° (NNW) 18:41:41 436.795
STARS 29 Sep 18:38:21 18:42:41 62° 288° (WNW) 18:46:59 437.465
CINEMA 3 29 Sep 18:39:09 18:41:03 13° 58° (ENE) 18:42:56 145.822/145.860
NOAA 18 29 Sep 18:47:20 18:52:48 77° 71° (ENE) 18:58:16 137.9125
CUSAT 1 29 Sep 18:48:48 18:54:38 32° 84° (E) 19:01:16 437.405
DANDE 29 Sep 18:59:20 19:02:28 14° 72° (ENE) 19:05:55 436.750
GOMX 1 29 Sep 19:03:45 19:09:01 62° 259° (W) 19:14:02 467.674
NOAA 15 29 Sep 19:07:16 19:12:28 54° 259° (W) 19:17:42 137.62
DOVE 4 29 Sep 19:15:25 19:20:21 86° 77° (ENE) 19:25:01 437.250
COMPASS 1 29 Sep 19:23:35 19:25:29 13° 57° (ENE) 19:27:22 437.405
CUBESAT XI-V 29 Sep 19:23:42 19:28:16 50° 290° (WNW) 19:32:46 437.345
BRITE-PL 29 Sep 19:25:43 19:30:12 24° 269° (W) 19:34:37 437.365/2234.400
CUTE-I 29 Sep 19:30:23 19:35:24 42° 262° (W) 19:40:28 437.470
Cubesat XI-IV 29 Sep 19:30:52 19:35:54 42° 262° (W) 19:40:58 437.490
CUBEBUG 2 29 Sep 19:33:26 19:35:13 12° 57° (ENE) 19:36:58 437.445
STRAND 1 29 Sep 19:37:13 19:40:22 16° 88° (E) 19:43:30 437.568
HO-68 29 Sep 19:40:39 19:47:36 57° 64° (ENE) 19:54:35 435.675
UWE-3 29 Sep 19:47:34 19:49:05 12° 56° (ENE) 19:50:37 435.000/436.395/437.385
SEEDS 29 Sep 19:53:41 19:57:26 32° 67° (ENE) 20:01:12 437.485
CUTE 1.7 + AOD 2 29 Sep 19:55:38 19:59:40 45° 70° (ENE) 20:03:46 437.475
GONETS M04 29 Sep 19:56:42 20:05:29 62° 74° (ENE) 20:14:08
CANX-2 29 Sep 19:57:12 20:01:19 53° 71° (ENE) 20:05:30 2200.000
LilacSat-2 29 Sep 19:57:34 20:00:00 16° 269° (W) 20:02:28 437.200
Oscar 11 29 Sep 20:06:07 20:08:00 13° 56° (NE) 20:09:52 145.826/435.025
RS-15 29 Sep 20:10:27 20:21:22 49° 112° (ESE) 20:32:49 29.354- 29.394
AAUSAT CUBESAT 2 29 Sep 20:10:38 20:14:10 27° 65° (ENE) 20:17:42 437.432
ZACube-1 29 Sep 20:11:45 20:13:47 13° 58° (ENE) 20:15:50 437.345
CINEMA 3 29 Sep 20:13:13 20:17:37 90° 210° (SSW) 20:21:54 145.822/145.860
Cosmos 2499 29 Sep 20:16:23 20:23:53 69° 77° (ENE) 20:31:57 435.465 / 435.565
SO-50 29 Sep 20:18:21 20:20:32 13° 1° (N) 20:22:42 436.795
ISS 29 Sep 20:25:14 20:27:32 18° 140° (SE) 20:29:51 145.825
CUSAT 1 29 Sep 20:29:19 20:36:04 66° 287° (WNW) 20:43:59 437.405
NOAA 18 29 Sep 20:30:22 20:34:05 18° 270° (W) 20:37:48 137.9125
DANDE 29 Sep 20:37:53 20:43:31 72° 97° (E) 20:50:55 436.750
AO-85 29 Sep 20:53:31 20:57:39 25° 116° (ESE) 21:01:35 145.980
DOVE 4 29 Sep 20:56:11 20:58:36 14° 272° (W) 21:00:58 437.250
COMPASS 1 29 Sep 20:56:12 21:00:23 89° 245° (WSW) 21:04:38 437.405
FUNcube-1 29 Sep 21:02:31 21:06:17 35° 68° (ENE) 21:10:05 145.935
CUBEBUG 2 29 Sep 21:07:03 21:11:14 87° 256° (WSW) 21:15:25 437.445
DELFI C3 29 Sep 21:13:30 21:16:34 21° 63° (ENE) 21:19:38 145.870
STRAND 1 29 Sep 21:15:01 21:20:12 82° 286° (WNW) 21:25:21 437.568
UWE-3 29 Sep 21:20:45 21:24:54 87° 70° (ENE) 21:29:05 435.000/436.395/437.385
HO-68 29 Sep 21:29:10 21:35:38 36° 265° (W) 21:42:08 435.675
SEEDS 29 Sep 21:29:24 21:33:07 30° 265° (W) 21:36:54 437.485
PRISM 29 Sep 21:29:45 21:32:30 17° 91° (E) 21:35:14 437.425
CUTE 1.7 + AOD 2 29 Sep 21:32:28 21:35:44 21° 268° (W) 21:39:03 437.475
CANX-2 29 Sep 21:34:32 21:37:31 18° 270° (W) 21:40:31 2200.000
Oscar 11 29 Sep 21:39:07 21:43:26 86° 76° (ENE) 21:47:49 145.826/435.025
ZACube-1 29 Sep 21:45:21 21:49:29 81° 255° (WSW) 21:53:41 437.345
AAUSAT CUBESAT 2 29 Sep 21:45:41 21:49:32 35° 264° (W) 21:53:24 437.432
HUMSAT D 29 Sep 21:48:01 21:51:24 25° 64° (ENE) 21:54:50 437.325/437.525
GONETS M04 29 Sep 21:54:07 22:01:51 36° 277° (W) 22:09:31
CINEMA 3 29 Sep 21:54:18 21:55:23 11° 273° (W) 21:56:26 145.822/145.860
SO-50 29 Sep 21:59:10 22:02:44 21° 26° (NNE) 22:06:13 436.795
ISS 29 Sep 22:00:22 22:03:38 76° 157° (SSE) 22:06:54 145.825
Cosmos 2499 29 Sep 22:10:16 22:16:28 29° 277° (W) 22:23:01 435.465 / 435.565
CUSAT 1 29 Sep 22:14:52 22:19:50 19° 311° (NW) 22:25:10 437.405
RS-15 29 Sep 22:21:45 22:33:33 68° 319° (NW) 22:45:55 29.354- 29.394
DANDE 29 Sep 22:22:06 22:27:14 27° 304° (WNW) 22:33:27 436.750
AO-85 29 Sep 22:32:46 22:37:50 64° 313° (NW) 22:42:33 145.980
UNISAT 6 29 Sep 22:34:36 22:36:53 14° 88° (E) 22:39:10 437.425
COMPASS 1 29 Sep 22:35:56 22:36:37 10° 275° (W) 22:37:18 437.405
FUNcube-1 29 Sep 22:39:11 22:42:38 25° 266° (W) 22:46:07 145.935
DELFI C3 29 Sep 22:47:19 22:51:09 43° 262° (W) 22:55:02 145.870
M-CUBED/EXP-1 PRIME 29 Sep 22:49:12 22:50:31 12° 53° (NE) 22:51:49 437.505
CUBEBUG 1 29 Sep 22:52:07 22:54:53 17° 59° (ENE) 22:57:39 437.445
VELOX 1 29 Sep 22:54:04 22:56:27 14° 56° (ENE) 22:58:51 145.980
STRAND 1 29 Sep 22:55:41 22:58:37 15° 306° (NW) 23:01:33 437.568
UWE-3 29 Sep 23:01:13 23:02:01 10° 274° (W) 23:02:49 435.000/436.395/437.385
ESTCUBE 1 29 Sep 23:02:13 23:06:08 29° 64° (ENE) 23:10:04 437.505/2401.250
PRISM 29 Sep 23:04:05 23:08:09 54° 289° (WNW) 23:12:10 437.425
ANTELSAT 29 Sep 23:08:44 23:12:35 28° 95° (E) 23:16:28 437.575/2403.000
Oscar 11 29 Sep 23:18:40 23:20:13 12° 274° (W) 23:21:46 145.826/435.025
SPROUT 29 Sep 23:23:04 23:25:24 15° 58° (ENE) 23:27:43 437.525
